User: anonymous   Login
Location: Columbia
(38.9520°N, 92.3340°W)
Time: 20:36:26
(UTC-06:00)
Language:

CZ-4B R/B - Orbit

View from above orbital plane
View from above orbital plane
View from above satellite
View from above satellite

Ground track
Ground track

The orbit data is extracted from the following two-line orbital elements,

1 29093U 06015B   15029.28205670  .00013515  00000-0  43847-3 0  5060
2 29093 097.5032 114.9832 0083414 184.0540 221.4154 15.28701866484066
Epoch (UTC): 29 January 2015 06:46:09
Eccentricity: 0.0083414
inclination: 97.5032°
perigee height: 422 km
apogee height: 537 km
right ascension of ascending node: 114.9832°
argument of perigee: 184.0540°
revolutions per day: 15.28701866
mean anomaly at epoch: 221.4154°
orbit number at epoch: 48406

The dashed part of the orbit path shows where the satellite is in the earth's shadow,  

DLR